Regional Weather Roundup
Issued by NWS Little Rock, AR

Home | Current Version | Previous Version | Text Only | Print | Product List | Glossary On
Versions: 1 2 3 4 5 6 7 8 9 10 11 12 13 14 15 16 17 18 19 20 21 22 23 24 25 26 27 28 29 30 31 32 33 34 35 36 37 38 39 40 41 42 43 44 45 46 47 48 49 50
000
ASUS44 KLZK 041105
RWRLZK

WEATHER ROUNDUP FOR ARKANSAS
NATIONAL WEATHER SERVICE LITTLE ROCK AR
600 AM CDT FRI SEP 04 2015

NOTE: "FAIR" INDICATES FEW OR NO CLOUDS BELOW 12,000 FEET WITH NO
SIGNIFICANT WEATHER AND/OR OBSTRUCTIONS TO VISIBILITY.

ARZ001-003-010-029-041200-
NORTHWEST ARKANSAS

CITY           SKY/WX    TMP DP  RH WIND       PRES   REMARKS
FAYETTEVILLE   CLEAR     64  64 100 CALM      30.01R FOG
FORT SMITH     PTCLDY    73  68  84 NE3       29.96R
HARRISON       PTCLDY    68  66  93 SE3       30.02R
BENTONVILLE    CLEAR     70  63  78 SE6       30.00S
ROGERS         CLEAR     71  67  87 SE8       30.01S
SILOAM SPGS    PTCLDY    70  63  78 E3        29.98S
HIGHFILL       CLEAR     69  67  93 CALM      30.00R
SPRINGDALE     CLEAR     70  66  88 E3        30.03
$$

ARZ004-005-016-041200-
NORTH CENTRAL ARKANSAS

CITY           SKY/WX    TMP DP  RH WIND       PRES   REMARKS
BATESVILLE     CLEAR     68  66  94 CALM      29.99R
FLIPPIN        CLEAR     68  63  83 CALM      29.98S
MTN HOME       CLEAR     69  67  93 CALM      30.00R
$$

ARZ040-041-041200-
WEST CENTRAL ARKANSAS

CITY           SKY/WX    TMP DP  RH WIND       PRES   REMARKS
MENA           PTCLDY    68  66  94 S3        30.00R
MOUNT IDA      PTCLDY    68  66  93 CALM      29.97R FOG
$$

ARZ009-017-025-026-028-041200-
NORTHEAST ARKANSAS

CITY           SKY/WX    TMP DP  RH WIND       PRES   REMARKS
JONESBORO      CLEAR     68  67  96 CALM      29.98R
NEWPORT        CLEAR     71  71 100 NE5       29.99R
WALNUT RIDGE   CLEAR     70  66  88 CALM      29.98S
BLYTHEVILLE    CLEAR     71  70  96 CALM      29.98R
$$

ARZ022-023-033-042-044-041200-
CENTRAL ARKANSAS

CITY           SKY/WX    TMP DP  RH WIND       PRES   REMARKS
LITTLE ROCK    PTCLDY    73  69  87 CALM      29.97R
N LITTLE ROCK    N/A     76  70  83 SE2       29.97R
JACKSONVILLE   CLEAR     69  67  93 CALM      29.97R
SEARCY         CLEAR     69  68  96 CALM      29.99R
HOT SPRINGS    CLEAR     73  67  81 E5        29.97S
RUSSELLVILLE   CLEAR     70  68  93 CALM      29.97R
$$

ARZ036-041200-
EAST ARKANSAS

CITY           SKY/WX    TMP DP  RH WIND       PRES   REMARKS
WEST MEMPHIS   CLEAR     72  72 100 CALM      29.96R
$$

ARZ050-053-066-070-073-041200-
SOUTHWEST ARKANSAS

CITY           SKY/WX    TMP DP  RH WIND       PRES   REMARKS
ARKADELPHIA    FAIR      69  69 100 CALM      29.96R FOG
CAMDEN         PTCLDY    68  66  94 CALM      29.95S
TEXARKANA      CLEAR     71  68  90 CALM      29.95R
EL DORADO      PTCLDY    70  67  90 CALM      29.96R
DE QUEEN       FOG       67  67 100 CALM      29.94R VSB 3/4
$$

ARZ056-057-069-041200-
SOUTHEAST ARKANSAS

CITY           SKY/WX    TMP DP  RH WIND       PRES   REMARKS
PINE BLUFF     CLEAR     71  69  93 CALM      29.96R
STUTTGART      CLEAR     72  64  78 CALM      29.97R
MONTICELLO     CLEAR     73  71  93 CALM      29.96R

$$




USA.gov is the U.S. government's official web portal to all federal, state and local government web resources and services.